User: anonymous   Login
Location: Unspecified
(0.0000°N, 0.0000°E)
Time: 00:14:59
(UTC+00:00)
Language:

Transit VBN-1 - Orbit

View from above orbital plane
View from above orbital plane
View from above satellite
View from above satellite

Ground track
Ground track

The orbit data is extracted from the following two-line orbital elements,

1 00670U 63038B   17326.54970831  .00000040  00000-0  53260-4 0  9993
2 00670  90.0674 326.3722 0041068 350.2351 121.3134 13.44279756654428
Epoch (UTC): 22 November 2017 13:11:34
Eccentricity: 0.0041068
inclination: 90.0674°
perigee height: 1062 km
apogee height: 1124 km
right ascension of ascending node: 326.3722°
argument of perigee: 350.2351°
revolutions per day: 13.44279756
mean anomaly at epoch: 121.3134°
orbit number at epoch: 65442

The dashed part of the orbit path shows where the satellite is in the earth's shadow,  

DLR